Regional Weather Roundup
Issued by NWS New Orleans/Baton Rouge, LA

Home | Current Version | Previous Version | Text Only | Print | Product List | Glossary On
Versions: 1 2 3 4 5 6 7 8 9 10 11 12 13 14 15 16 17 18 19 20 21 22 23 24 25 26 27 28 29 30 31 32 33 34 35 36 37 38 39 40 41 42 43 44 45 46 47 48 49 50
306
ASUS44 KLIX 201805
RWRLIX
NEW ORLEANS REGIONAL WEATHER ROUNDUP
NATIONAL WEATHER SERVICE NEW ORLEANS LA
100 PM CDT MON OCT 20 2014

NOTE: "FAIR" INDICATES FEW OR NO CLOUDS BELOW 12,000 FEET WITH NO
      SIGNIFICANT WEATHER AND/OR OBSTRUCTIONS TO VISIBILITY.
      SKY/WX - SKY CONDITION AND SIGNIFICANT WEATHER.
      TMP - AIR TEMPERATURE.     DP    - DEWPOINT TEMPERATURE.
      RH  - RELATIVE HUMIDITY.   PRES  - PRESSURE.
      HI  - HEAT INDEX.          WCI   - WIND CHILL INDEX.

*  THESE STATIONS ARE NOT NWS OR FAA STATIONS AND ARE NOT UNDER
   NWS QUALITY CONTROL.

LAZ038-040-048-061>063-065>067-069-201900-
SOUTHEAST LOUISIANA

CITY           SKY/WX    TMP DP  RH WIND       PRES   REMARKS
N.O. AUDUBON     N/A     80  58  47 MISG        N/A
6HR MIN TEMP:  61; 6HR MAX TEMP:  81;

N.O. INTL ARPT MOSUNNY   77  56  48 N9        30.04F
6HR MIN TEMP:  59; 6HR MAX TEMP:  77;

N.O. LAKEFRONT SUNNY     76  57  51 N10       30.05F
6HR MIN TEMP:  67; 6HR MAX TEMP:  76;

N.O. DOWNTOWN*   N/A     77  54  44 CALM      30.04F
6HR MIN TEMP:  64; 6HR MAX TEMP:  79;

SLIDELL        MOSUNNY   76  52  43 CALM      30.04F
6HR MIN TEMP:  49; 6HR MAX TEMP:  76;

BATON ROUGE    MOSUNNY   77  51  40 N6        30.05F
6HR MIN TEMP:  52; 6HR MAX TEMP:  78;

BOOTHVILLE     MOSUNNY   79  63  57 VRB6      30.03F
6HR MIN TEMP:  69; 6HR MAX TEMP:  80;

BELLE CHASSE   PTSUNNY   78  59  51 E7        30.03F
6HR MIN TEMP:  55; 6HR MAX TEMP:  78;

BOGALUSA*        N/A     77  47  35 N5        30.06F
6HR MIN TEMP:  46; 6HR MAX TEMP:  77;

NEW ROADS*       N/A     74  54  49 CALM      30.06F
6HR MIN TEMP:  51; 6HR MAX TEMP:  75;

GONZALES*        N/A     76  56  49 CALM      30.04F
6HR MIN TEMP:  52; 6HR MAX TEMP:  77;

HAMMOND*       MOSUNNY   79  46  31 NE5       30.06F
HOUMA*         MOSUNNY   79  63  57 N3        30.04F
PORT FOURCHON* CLEAR     77  61  57 E8        30.06F

$$

MSZ070-080>082-201900-
SOUTHERN MISSISSIPPI

CITY           SKY/WX    TMP DP  RH WIND       PRES   REMARKS
MCCOMB         MOSUNNY   73  48  41 N5        30.06F
6HR MIN TEMP:  48; 6HR MAX TEMP:  73;

GULFPORT       SUNNY     76  49  38 VRB3      30.03F
6HR MIN TEMP:  53; 6HR MAX TEMP:  77;

BILOXI         SUNNY     78  52  39 N5        30.03F
6HR MIN TEMP:  52; 6HR MAX TEMP:  78;

PASCAGOULA     SUNNY     77  51  40 CALM      30.03F
6HR MIN TEMP:  45; 6HR MAX TEMP:  78;

STENNIS ARPT*  SUNNY     75  46  35 VRB5      30.05F

$$

COASTAL OBSERVATIONS
LAKE AND NEARSHORE STATIONS

STATION/POSITION TIME  TEMP    WIND        PRES    WAVE
                       AIR SEA DIR/SP/G            HT/PER
                 (UTC) (F)     (DEG/KT/KT) (MB)    (FT/S)
PASCAGOULA       1800   77     250/  5/  6 1016.6
WAVELAND YACHT   1800   73     350/  2/  2 1016.7
GRAND ISLE       1800   78 78   90/  5/  8 1017.4
SOUTHWEST PASS   1800   85 84              1016.8
NEW CANAL        1800   71 72   30/  8/ 10 1017.7
SHELL BEACH      1800   71 69   20/ 11/ 12 1017.0

OFFSHORE STATIONS

STATION/POSITION TIME  TEMP    WIND        PRES    WAVE
                       AIR SEA DIR/SP/G            HT/PER
                 (UTC) (F)     (DEG/KT/KT) (MB)    (FT/S)
64 S DAUPHIN ISL 1704   76 80  110/  4/  8 1017.0    1/ 5

$$




USA.gov is the U.S. government's official web portal to all federal, state and local government web resources and services.